Location: Argonnex
(45.9500°N, 6.1333°E)
Time: 07:34:43
(UTC+00:00)

IRIDIUM 106 - Pass Details

Date: 28 January 2023
Orbit: 776 x 779 km, 86.4° (Epoch: 21 March)

Event Time Altitude Azimuth Distance (km) Brightness Sun altitude
Rises 19:03:39 0° 356° (N) 3,275 7.6 -25.9°
Reaches altitude 10° 19:06:01 10° 356° (N) 2,343 6.8 -26.3°
Maximum altitude 19:11:17 85° 268° (W) 788 4.2 -27.2°
Enters shadow 19:11:58 68° 190° (S) 840 4.4 -27.3°
Exits shadow 19:17:10 - 180° (S) 2,593 7.0 -28.2°
Sets 19:18:49 0° 180° (S) 3,247 7.5 -28.5°
